Regional Weather Roundup
Issued by NWS Mobile, AL

Home | Current Version | Previous Version | Text Only | Print | Product List | Glossary On
Versions: 1 2 3 4 5 6 7 8 9 10 11 12 13 14 15 16 17 18 19 20 21 22 23 24 25 26 27 28 29 30 31 32 33 34 35 36 37 38 39 40 41 42 43 44 45 46 47 48 49 50
000
ASUS44 KMOB 220210
RWRMOB
REGIONAL WEATHER ROUNDUP
NATIONAL WEATHER SERVICE MOBILE AL
800 PM CST SUN DEC 21 2014

NOTE: "FAIR" INDICATES FEW OR NO CLOUDS BELOW 12,000 FEET WITH NO
      SIGNIFICANT WEATHER AND/OR OBSTRUCTIONS TO VISIBILITY.

  * THESE STATIONS ARE PART OF THE UNIVERSITY OF SOUTH ALABAMA
    MESONET AND ARE NOT UNDER NWS OR FAA QUALITY CONTROL.

ALZ061>064-220300-
COASTAL ALABAMA

CITY           SKY/WX    TMP DP  RH WIND       PRES   REMARKS
MOBILE REG APT CLOUDY    53  53 100 NE7       30.02F FOG
BROOKLEY FIELD CLOUDY    57  55  93 N3        30.04R
USA CAMPUS*      N/A     55  54  94 E3        30.03R
DOG RIVER*     NOT AVBL


CITY           SKY/WX    TMP DP  RH WIND       PRES   REMARKS
MOUNT VERNON*    N/A     52  52 100 CALM      30.04R
SARALAND*      NOT AVBL
BAY MINETTE*   NOT AVBL
LOXLEY*          N/A     55  54  94 E2        30.03R
ROBERTSDALE*     N/A     55  54  94 SE3       30.02R
FAIRHOPE*        N/A     55  55 100 E5        30.02R
ELBERTA*         N/A     55  55 100 E2        30.01R
FOLEY*           N/A     54  54 100 CALM      30.02R
GRAND BAY*       N/A     55  54  94 E5        30.00S
DAUPHIN ISLND* NOT AVBL
BON SCOUR NWR* NOT AVBL
GULF SHORES    CLOUDY    56  54  93 E7        30.02S

$$

ALZ051>060-220300-
INTERIOR SOUTHWEST AND SOUTH CENTRAL ALABAMA

CITY           SKY/WX    TMP DP  RH WIND       PRES   REMARKS
GREENVILLE     CLOUDY    53  51  93 E5        30.03S FOG
EVERGREEN      CLOUDY    56  54  93 E5        30.03F FOG
CASTLEBERRY*   NOT AVBL
ATMORE*          N/A     54  54 100 E6        30.05R
DIXIE*           N/A     54  54 100 CALM      30.01S
ANDALUSIA/OPP  CLOUDY    57  53  86 SE5       30.03F FOG
ANDALUSIA*       N/A     54  54 100 E6        30.03S
FLORALA APT    CLOUDY    55  54  94 E5        30.05S FOG
FLORALA*         N/A     54  54 100 CALM      30.02R

$$

FLZ001>006-220300-
WESTERN FLORIDA PANHANDLE

CITY           SKY/WX    TMP DP  RH WIND       PRES   REMARKS
PENSACOLA      CLOUDY    53  53 100 E3        30.02R
NAS PENSACOLA  CLOUDY    57  55  93 NE6       30.01S
MILTON         CLOUDY    55  53  93 NE5       30.02S
WHTNG S FIELD  NOT AVBL


CITY           SKY/WX    TMP DP  RH WIND       PRES   REMARKS
WALNUT HILL*   NOT AVBL
JAY*             N/A     54  54 100 SE6       30.04S
DUKE FIELD     CLOUDY    55  54  94 NE3       30.02S
CRESTVIEW      CLOUDY    55  54  96 N3        30.05S FOG
VALPARAISO     CLOUDY    55  54  95 E6        30.02F FOG
DESTIN         CLOUDY    57  55  93 E7        30.01F

$$

MSZ076-079-220300-
INTERIOR SOUTHEAST MISSISSIPPI

CITY           SKY/WX    TMP DP  RH WIND       PRES   REMARKS
LEAKESVILLE*   NOT AVBL
AGRICOLA*      NOT AVBL

$$

MARINE OBSERVATIONS

STATION/POSITION TIME  TEMP    WIND        PRES    WAVE
                       AIR SEA DIR/SP/G            HT/PER
                 (UTC) (F)     (DEG/KT/KT) (MB)    (FT/S)
PASCAGOULA       0200   57      60/  5/  8 1015.8F
PETIT BOIS ISLND 0200   57      70/ 13/ 16 1016.4R
GRAND BAY        0100   56      40/  2     1017.0S
KATRINA CUT      0100   56      70/  8     1016.9R
CEDAR POINT      0100   56      80/  5     1016.6R
E DAUPHIN ISLAND 0200   57      80/ 11/ 12 1016.0F
MIDDLE BAY LIGHT 0100   56      90/  6     1015.6S
USCG MOBILE BAY  0200   56 59   30/  4/  5 1015.7S
STATE DOCKS      0200   55 60              1016.4F
MEAHER PARK      0100   57     250/  2     1017.3R
WEEKS BAY        0100   56                   N/A
FORT MORGAN      0200   57      80/  8/ 10 1015.9R
12 S ORANGE BCH  0200   62 70   60/ 12/ 16 1015.3S   2/ 4
PENSACOLA BAY    0200   58 59  130/  1/  3 1016.6S
64 S DAUPHIN ISL 0200   68 74   90/ 12/ 17 1014.3F   2/ 6
67 S FORT MORGAN 0100   67      90/ 12     1014.9F

$$

SELECTED LOCATIONS ACROSS THE REGION

CITY           SKY/WX    TMP DP  RH WIND       PRES   REMARKS
NEW ORLEANS    CLOUDY    55  51  86 E7        29.98S FOG
GULFPORT       CLOUDY    56  53  90 NE7       29.99F
PASCAGOULA AP  CLOUDY    56  54  93 E3        30.01F
PASCAGOULA*      N/A     55  54  94 NE2       30.01S
HATTIESBURG    CLOUDY    53  51  93 E5        30.02R FOG
LAUREL         CLOUDY    52  46  82 E3        30.02R
MERIDIAN       CLOUDY    49  47  93 NE7       30.03F FOG
JACKSON        CLOUDY    49  47  93 SE10      30.00F
MONTGOMERY     CLOUDY    53  49  86 E7        30.07S
TROY           CLOUDY    52  51  97 NE3       30.05F FOG
KINSTON*       NOT AVBL
GENEVA*          N/A     54  52  94 SE7       30.04F
ASHFORD*         N/A     54  54 100 E6        30.03S
DOTHAN         CLOUDY    52  51  97 E8        30.06F FOG
PANAMA CITY    LGT RAIN  56  54  93 NE7       30.00F VSB 1

$$



USA.gov is the U.S. government's official web portal to all federal, state and local government web resources and services.